This is the latest recevied weather packets stored in our database for station/object GW4003. If no packets are shown the sender has not sent any weather packets the latest 10 day(s).
| Time | Temp. | Humidity | Pressure | Rain* | Wind** | Luminosity | Snow |
|---|---|---|---|---|---|---|---|
| 1777504558 | 12.78° C | 44% | 1018.8 hPa | 0 mm | - | - | - |
| 1777504255 | 12.78° C | 45% | 1018.7 hPa | 0 mm | - | - | - |
| 1777503951 | 12.78° C | 45% | 1018.9 hPa | 0 mm | - | - | - |
| 1777503651 | 12.78° C | 46% | 1018.8 hPa | 0 mm | - | - | - |
| 1777503348 | 12.78° C | 47% | 1018.6 hPa | 0 mm | - | - | - |
| 1777503044 | 12.78° C | 47% | 1018.5 hPa | 0 mm | - | - | - |
| 1777502741 | 12.22° C | 48% | 1018.6 hPa | 0 mm | - | - | - |
| 1777502438 | 12.78° C | 50% | 1018.5 hPa | 0 mm | - | - | - |
| 1777502134 | 12.78° C | 49% | 1018.4 hPa | 0 mm | - | - | - |
| 1777501831 | 13.33° C | 47% | 1018.4 hPa | 0 mm | - | - | - |
| 1777501528 | 13.33° C | 45% | 1018.2 hPa | 0 mm | - | - | - |
| 1777501225 | 13.33° C | 43% | 1018.2 hPa | 0 mm | - | - | - |
| 1777500922 | 13.33° C | 44% | 1018.3 hPa | 0 mm | - | - | - |
| 1777500619 | 13.33° C | 45% | 1018.3 hPa | 0 mm | - | - | - |
| 1777500315 | 13.33° C | 42% | 1018.2 hPa | 0 mm | - | - | - |
| 1777500012 | 12.78° C | 44% | 1018.1 hPa | 0 mm | - | - | - |
| 1777499708 | 12.78° C | 45% | 1018.1 hPa | 0 mm | - | - | - |
| 1777499404 | 12.78° C | 45% | 1018.2 hPa | 0 mm | - | - | - |
| 1777499101 | 12.22° C | 47% | 1018.2 hPa | 0 mm | - | - | - |
| 1777498797 | 12.78° C | 46% | 1018.2 hPa | 0 mm | - | - | - |
| 1777498492 | 12.22° C | 50% | 1018.3 hPa | 0 mm | - | - | - |
| 1777498191 | 12.22° C | 51% | 1018.2 hPa | 0 mm | - | - | - |
| 1777497890 | 11.67° C | 49% | 1018.3 hPa | 0 mm | - | - | - |
| 1777497586 | 11.67° C | 51% | 1018.4 hPa | 0 mm | - | - | - |
| 1777497282 | 11.67° C | 49% | 1018.7 hPa | 0 mm | - | - | - |
* Rain latest hour (hover to see other rain measurements)
** Current wind speed in m/s (hover to see current wind gust speed)